Weather History for Madison, MN

Change the Weather History Date:

Saturday, October 5, 2013

  Actual Average (KAQP) Record (KAQP)
Temperature  
Mean Temperature 50 °F -  
Max Temperature 60 °F 62 °F 87 °F (2011)
Min Temperature 41 °F 37 °F 26 °F (2001)
Degree Days  
Heating Degree Days 14    
Moisture  
Dew Point 43 °F    
Average Humidity 77    
Maximum Humidity 94    
Minimum Humidity 58    
Precipitation  
Precipitation 0.09 in - - ()
Sea Level Pressure  
Sea Level Pressure 29.75 in    
Wind  
Wind Speed 11 mph (SE)    
Max Wind Speed 18 mph    
Max Gust Speed 25 mph    
Visibility 9 miles    
Events Rain    
Averages and records for this station are not official NWS values.
T = Trace of Precipitation, MM = Missing Value Source: NWS Daily Summary

Daily Weather History Graph

Daily Weather History Graph

Search for Another Location

Airport:

Trip Planner

Search our weather history database for the weather conditions in past years. The results will help you decide how hot, cold, wet, or windy it might be!

Date:

Astronomy

Oct. 05, 2013 Rise Set
Actual Time 7:28 AM CDT 6:57 PM CDT
Civil Twilight 6:58 AM CDT 7:26 PM CDT
Nautical Twilight 6:24 AM CDT 8:00 PM CDT
Astronomical Twilight 5:50 AM CDT 8:34 PM CDT
Moon 8:11 AM CDT (10/5) 7:12 PM CDT (10/5)
Length of Visible Light 12h 27m
Length of Day
11h 29m
New Moon, 1% of the Moon is Illuminated
Oct 5
New Moon
Oct 11
First Quarter
Oct 18
Full
Oct 26
Last Quarter
Nov 3
New

Hourly Weather History & Observations

Time (CDT) Temp. Windchill Dew Point Humidity Pressure Visibility Wind Dir Wind Speed Gust Speed Precip Events Conditions
12:14 AM 59.0 °F - 55.4 °F 88% 29.76 in 10.0 mi East 10.4 mph - N/A   Overcast
12:33 AM 59.0 °F - 55.4 °F 88% 29.76 in 7.0 mi East 12.7 mph 16.1 mph N/A   Drizzle
12:53 AM 59.0 °F - 57.2 °F 94% 29.74 in 4.0 mi East 16.1 mph - 0.03 in Rain Rain
1:14 AM 59.0 °F - 57.2 °F 94% 29.73 in 7.0 mi East 15.0 mph 19.6 mph N/A   Overcast
1:33 AM 59.0 °F - 57.2 °F 94% 29.73 in 10.0 mi East 15.0 mph 20.7 mph N/A   Overcast
1:54 AM 59.0 °F - 57.2 °F 94% 29.72 in 7.0 mi East 18.4 mph 23.0 mph N/A   Overcast
2:13 AM 59.0 °F - 57.2 °F 94% 29.71 in 2.5 mi East 16.1 mph - N/A   Mostly Cloudy
2:33 AM 59.0 °F - 57.2 °F 94% 29.70 in 2.0 mi East 15.0 mph 23.0 mph N/A Rain Heavy Rain
2:54 AM 59.0 °F - 57.2 °F 94% 29.70 in 2.5 mi East 16.1 mph - 0.01 in Rain Rain
3:14 AM 59.0 °F - 57.2 °F 94% 29.69 in 2.5 mi East 17.3 mph 23.0 mph 0.01 in Rain Light Rain
3:33 AM 60.8 °F - 57.2 °F 88% 29.68 in 2.5 mi East 17.3 mph 25.3 mph 0.01 in Rain Light Rain
3:54 AM 53.6 °F - 51.8 °F 94% 29.71 in 3.0 mi SSW 17.3 mph 23.0 mph 0.03 in Rain Rain
4:13 AM 51.8 °F - 50.0 °F 94% 29.72 in 4.0 mi SSW 10.4 mph - 0.01 in Rain Rain
4:34 AM 51.8 °F - 48.2 °F 88% 29.72 in 4.0 mi SSW 5.8 mph - 0.01 in   Drizzle
4:53 AM 51.8 °F - 48.2 °F 88% 29.72 in 7.0 mi SSW 5.8 mph - 0.02 in   Overcast
5:13 AM 51.8 °F - 46.4 °F 82% 29.72 in 10.0 mi SSW 10.4 mph 17.3 mph N/A   Overcast
5:34 AM 50.0 °F - 44.6 °F 82% 29.73 in 10.0 mi SSW 10.4 mph - N/A   Overcast
5:53 AM 48.2 °F - 42.8 °F 82% 29.74 in 10.0 mi South 12.7 mph 18.4 mph N/A   Overcast
6:13 AM 44.6 °F 38.8 °F 39.2 °F 81% 29.75 in 10.0 mi SSW 11.5 mph - N/A   Scattered Clouds
6:34 AM 44.6 °F 42.2 °F 39.2 °F 81% 29.75 in 10.0 mi South 4.6 mph - N/A   Clear
6:53 AM 42.8 °F 39.3 °F 39.2 °F 87% 29.75 in 10.0 mi South 5.8 mph - N/A   Clear
7:13 AM 42.8 °F 40.1 °F 37.4 °F 81% 29.76 in 10.0 mi South 4.6 mph - N/A   Clear
7:34 AM 41.0 °F 37.1 °F 37.4 °F 87% 29.75 in 10.0 mi SSE 5.8 mph - N/A   Clear
7:53 AM 41.0 °F 36.4 °F 37.4 °F 87% 29.75 in 10.0 mi SSE 6.9 mph - N/A   Clear
8:14 AM 42.8 °F 39.3 °F 37.4 °F 81% 29.76 in 10.0 mi SSE 5.8 mph - N/A   Clear
8:33 AM 42.8 °F 38.0 °F 37.4 °F 81% 29.76 in 10.0 mi SSE 8.1 mph - N/A   Clear
8:53 AM 44.6 °F 39.7 °F 39.2 °F 81% 29.76 in 10.0 mi SSE 9.2 mph - N/A   Clear
9:14 AM 44.6 °F 38.8 °F 39.2 °F 81% 29.76 in 10.0 mi SSE 11.5 mph 16.1 mph N/A   Clear
9:33 AM 46.4 °F 40.7 °F 37.4 °F 71% 29.76 in 10.0 mi SSE 12.7 mph - N/A   Clear
9:54 AM 46.4 °F 40.7 °F 39.2 °F 76% 29.76 in 10.0 mi SSE 12.7 mph 16.1 mph N/A   Scattered Clouds
10:14 AM 46.4 °F 41.9 °F 39.2 °F 76% 29.77 in 10.0 mi SSE 9.2 mph - N/A   Scattered Clouds
10:33 AM 46.4 °F 41.1 °F 39.2 °F 76% 29.77 in 10.0 mi SSE 11.5 mph - N/A   Mostly Cloudy
10:54 AM 46.4 °F 40.7 °F 37.4 °F 71% 29.77 in 10.0 mi SSE 12.7 mph 18.4 mph N/A   Overcast
11:14 AM 48.2 °F - 39.2 °F 71% 29.77 in 10.0 mi SSE 11.5 mph 17.3 mph N/A   Overcast
11:33 AM 48.2 °F - 39.2 °F 71% 29.76 in 10.0 mi SE 13.8 mph 19.6 mph N/A   Overcast
11:53 AM 48.2 °F - 39.2 °F 71% 29.76 in 10.0 mi SE 13.8 mph - N/A   Overcast
12:14 PM 48.2 °F - 39.2 °F 71% 29.76 in 10.0 mi SE 10.4 mph 16.1 mph N/A   Overcast
12:34 PM 50.0 °F - 39.2 °F 66% 29.76 in 10.0 mi SE 12.7 mph 16.1 mph N/A   Overcast
12:53 PM 50.0 °F - 39.2 °F 66% 29.76 in 10.0 mi South 12.7 mph 16.1 mph N/A   Overcast
1:14 PM 50.0 °F - 39.2 °F 66% 29.77 in 10.0 mi South 10.4 mph 17.3 mph N/A   Overcast
1:34 PM 50.0 °F - 39.2 °F 66% 29.76 in 10.0 mi South 12.7 mph - N/A   Overcast
1:53 PM 50.0 °F - 39.2 °F 66% 29.77 in 10.0 mi South 9.2 mph - N/A   Overcast
2:14 PM 51.8 °F - 39.2 °F 62% 29.76 in 10.0 mi South 11.5 mph 18.4 mph N/A   Overcast
2:34 PM 51.8 °F - 37.4 °F 58% 29.76 in 10.0 mi South 12.7 mph 18.4 mph N/A   Overcast
2:53 PM 51.8 °F - 39.2 °F 62% 29.76 in 10.0 mi SSE 9.2 mph - N/A   Overcast
3:14 PM 51.8 °F - 37.4 °F 58% 29.76 in 10.0 mi SSE 6.9 mph - N/A   Overcast
3:34 PM 51.8 °F - 37.4 °F 58% 29.75 in 10.0 mi South 5.8 mph - N/A   Overcast
3:53 PM 51.8 °F - 37.4 °F 58% 29.75 in 10.0 mi SSE 5.8 mph - N/A   Overcast
4:14 PM 51.8 °F - 39.2 °F 62% 29.75 in 10.0 mi SE 4.6 mph - N/A   Overcast
4:34 PM 51.8 °F - 37.4 °F 58% 29.76 in 10.0 mi South 4.6 mph - N/A   Overcast
4:53 PM 51.8 °F - 39.2 °F 62% 29.76 in 10.0 mi SE 3.5 mph - N/A   Overcast
5:14 PM 51.8 °F - 39.2 °F 62% 29.76 in 10.0 mi Calm Calm - N/A   Overcast
5:34 PM 51.8 °F - 39.2 °F 62% 29.76 in 10.0 mi South 3.5 mph - N/A   Overcast
5:53 PM 51.8 °F - 39.2 °F 62% 29.76 in 10.0 mi Calm Calm - N/A   Overcast
6:14 PM 51.8 °F - 39.2 °F 62% 29.74 in 10.0 mi Calm Calm - N/A   Overcast
6:33 PM 50.0 °F - 42.8 °F 76% 29.75 in 10.0 mi NNE 4.6 mph - N/A   Overcast
6:53 PM 50.0 °F - 41.0 °F 71% 29.76 in 10.0 mi Calm Calm - N/A   Overcast
7:14 PM 50.0 °F - 42.8 °F 76% 29.76 in 10.0 mi North 3.5 mph - N/A   Overcast
7:33 PM 50.0 °F - 42.8 °F 76% 29.76 in 10.0 mi North 3.5 mph - N/A   Overcast
7:53 PM 50.0 °F - 42.8 °F 76% 29.78 in 10.0 mi North 3.5 mph - N/A   Overcast
8:14 PM 50.0 °F - 42.8 °F 76% 29.78 in 10.0 mi NNE 4.6 mph - N/A   Overcast
8:33 PM 50.0 °F - 41.0 °F 71% 29.77 in 10.0 mi North 4.6 mph - N/A   Overcast
8:53 PM 48.2 °F - 41.0 °F 76% 29.77 in 10.0 mi North 4.6 mph - N/A   Scattered Clouds
9:14 PM 46.4 °F 43.5 °F 42.8 °F 87% 29.77 in 10.0 mi North 5.8 mph - N/A   Mostly Cloudy
9:33 PM 48.2 °F - 42.8 °F 82% 29.77 in 10.0 mi NNW 5.8 mph - N/A   Overcast
9:53 PM 50.0 °F - 42.8 °F 76% 29.78 in 10.0 mi North 6.9 mph - N/A   Overcast
10:14 PM 50.0 °F - 42.8 °F 76% 29.78 in 10.0 mi NNW 9.2 mph - N/A   Overcast
10:33 PM 50.0 °F - 42.8 °F 76% 29.78 in 10.0 mi NNW 8.1 mph - N/A   Overcast
10:54 PM 50.0 °F - 42.8 °F 76% 29.78 in 10.0 mi North 10.4 mph - N/A   Overcast
11:13 PM 50.0 °F - 42.8 °F 76% 29.78 in 10.0 mi NNW 10.4 mph - N/A   Overcast
11:34 PM 50.0 °F - 42.8 °F 76% 29.78 in 10.0 mi NNW 9.2 mph - N/A   Overcast
11:54 PM 50.0 °F - 44.6 °F 82% 29.78 in 10.0 mi NNW 6.9 mph - N/A   Overcast